Location: Bailleul
(50.3375°N, 2.8513°E)
Time: 09:24:56
(UTC+00:00)

Cosmos 1455 - Pass Details

Date: 19 April 2021
Orbit: 497 x 521 km, 82.5° (Epoch: 05 May)

Event Time Altitude Azimuth Distance (km) Brightness Sun altitude
Rises 20:33:07 0° 215° (SW) 2,591 5.7 -15.1°
Reaches altitude 10° 20:35:26 10° 226° (SW) 1,708 4.9 -15.4°
Maximum altitude 20:38:44 29° 288° (WNW) 947 4.2 -15.8°
Drops below altitude 10° 20:42:03 10° 350° (N) 1,714 5.6 -16.2°
Sets 20:44:22 0° 2° (N) 2,602 6.4 -16.4°
